Time,TemperatureF,DewpointF,PressureIn,WindDirection,WindDirectionDegrees,WindSpeedMPH,WindSpeedGustMPH,Humidity,HourlyPrecipIn,Conditions,Clouds,dailyrainin,SoftwareType,DateUTC
2015-06-02 01:11:00,56.0,50.0,-100.00,SSW,195,2.0,7.0,80,-99.99,,,-99.99,,2015-06-02 05:11:00,
2015-06-02 01:32:00,56.0,49.0,-100.00,SE,130,1.0,5.0,80,-99.99,,,-99.99,,2015-06-02 05:32:00,
2015-06-02 02:02:00,56.0,50.0,-100.00,East,100,2.0,3.0,80,-99.99,,,-99.99,,2015-06-02 06:02:00,
2015-06-02 02:11:00,55.0,49.0,-100.00,ESE,115,2.0,6.0,80,-99.99,,,-99.99,,2015-06-02 06:11:00,
2015-06-02 02:21:00,55.0,49.0,-100.00,East,95,4.0,7.0,81,-99.99,,,-99.99,,2015-06-02 06:21:00,
2015-06-02 02:31:00,55.0,50.0,-100.00,SSW,195,1.0,3.0,81,-99.99,,,-99.99,,2015-06-02 06:31:00,
2015-06-02 02:42:00,55.0,50.0,-100.00,East,90,1.0,4.0,81,-99.99,,,-99.99,,2015-06-02 06:42:00,
2015-06-02 02:51:00,55.0,50.0,-100.00,East,90,1.0,4.0,81,-99.99,,,-99.99,,2015-06-02 06:51:00,
2015-06-02 03:01:00,55.0,50.0,-100.00,SSW,195,0.0,3.0,81,-99.99,,,-99.99,,2015-06-02 07:01:00,
2015-06-02 03:11:00,55.0,50.0,-100.00,SSW,195,0.0,3.0,81,-99.99,,,-99.99,,2015-06-02 07:11:00,
2015-06-02 03:42:00,55.0,49.0,-100.00,East,90,2.0,5.0,81,-99.99,,,-99.99,,2015-06-02 07:42:00,
2015-06-02 04:01:00,55.0,50.0,-100.00,South,180,1.0,2.0,82,-99.99,,,-99.99,,2015-06-02 08:01:00,
2015-06-02 04:11:00,55.0,49.0,-100.00,East,95,1.0,4.0,82,-99.99,,,-99.99,,2015-06-02 08:11:00,
2015-06-02 04:21:00,55.0,50.0,-100.00,ESE,105,1.0,4.0,82,-99.99,,,-99.99,,2015-06-02 08:21:00,
2015-06-02 04:31:00,55.0,49.0,-100.00,East,95,1.0,4.0,81,-99.99,,,-99.99,,2015-06-02 08:31:00,
2015-06-02 04:43:00,55.0,49.0,-100.00,SE,140,1.0,6.0,81,-99.99,,,-99.99,,2015-06-02 08:43:00,
2015-06-02 04:51:00,55.0,49.0,-100.00,SE,145,3.0,5.0,81,-99.99,,,-99.99,,2015-06-02 08:51:00,
2015-06-02 05:02:00,55.0,49.0,-100.00,SSW,195,4.0,6.0,80,-99.99,,,-99.99,,2015-06-02 09:02:00,
2015-06-02 05:11:00,55.0,49.0,-100.00,SSW,205,1.0,4.0,81,-99.99,,,-99.99,,2015-06-02 09:11:00,
2015-06-02 05:31:00,55.0,49.0,-100.00,SSW,210,1.0,3.0,81,-99.99,,,-99.99,,2015-06-02 09:31:00,
2015-06-02 05:42:00,55.0,49.0,-100.00,SSW,205,2.0,6.0,81,-99.99,,,-99.99,,2015-06-02 09:42:00,
2015-06-02 05:51:00,55.0,49.0,-100.00,SW,230,2.0,4.0,81,-99.99,,,-99.99,,2015-06-02 09:51:00,
2015-06-02 06:02:00,55.0,49.0,-100.00,SW,215,2.0,4.0,81,-99.99,,,-99.99,,2015-06-02 10:02:00,
2015-06-02 07:12:00,55.0,49.0,-100.00,SSW,205,1.0,5.0,81,-99.99,,,-99.99,,2015-06-02 11:12:00,
2015-06-02 07:31:00,55.0,49.0,-100.00,SW,215,3.0,7.0,80,-99.99,,,-99.99,,2015-06-02 11:31:00,
2015-06-02 07:42:00,55.0,49.0,-100.00,SW,215,3.0,7.0,81,-99.99,,,-99.99,,2015-06-02 11:42:00,
2015-06-02 08:31:00,55.0,49.0,-100.00,WSW,255,1.0,4.0,80,-99.99,,,-99.99,,2015-06-02 12:31:00,
2015-06-02 09:01:00,55.0,49.0,-100.00,SW,215,2.0,7.0,80,-99.99,,,-99.99,,2015-06-02 13:01:00,
2015-06-02 09:43:00,55.0,49.0,-100.00,SW,230,1.0,6.0,80,-99.99,,,-99.99,,2015-06-02 13:43:00,
2015-06-02 10:02:00,55.0,49.0,-100.00,South,190,2.0,6.0,80,-99.99,,,-99.99,,2015-06-02 14:02:00,
2015-06-02 10:31:00,56.0,49.0,-100.00,South,185,3.0,6.0,80,-99.99,,,-99.99,,2015-06-02 14:31:00,
2015-06-02 10:43:00,55.0,49.0,-100.00,SSW,195,2.0,6.0,80,-99.99,,,-99.99,,2015-06-02 14:43:00,
2015-06-02 10:51:00,56.0,50.0,-100.00,SSE,160,2.0,6.0,79,-99.99,,,-99.99,,2015-06-02 14:51:00,
2015-06-02 11:03:00,56.0,50.0,-100.00,SE,135,4.0,9.0,80,-99.99,,,-99.99,,2015-06-02 15:03:00,
2015-06-02 11:12:00,56.0,50.0,-100.00,SSE,150,3.0,6.0,79,-99.99,,,-99.99,,2015-06-02 15:12:00,
2015-06-02 11:21:00,56.0,50.0,-100.00,SSE,160,4.0,7.0,79,-99.99,,,-99.99,,2015-06-02 15:21:00,
2015-06-02 11:42:00,56.0,50.0,-100.00,SSE,160,5.0,9.0,78,-99.99,,,-99.99,,2015-06-02 15:42:00,
2015-06-02 11:52:00,56.0,49.0,-100.00,ESE,115,4.0,7.0,78,-99.99,,,-99.99,,2015-06-02 15:52:00,
2015-06-02 12:02:00,56.0,49.0,-100.00,SSE,155,3.0,6.0,78,-99.99,,,-99.99,,2015-06-02 16:02:00,
2015-06-02 12:21:00,57.0,50.0,-100.00,East,100,4.0,9.0,77,-99.99,,,-99.99,,2015-06-02 16:21:00,
2015-06-02 12:31:00,57.0,50.0,-100.00,SSW,200,4.0,8.0,77,-99.99,,,-99.99,,2015-06-02 16:31:00,
2015-06-02 12:43:00,57.0,49.0,-100.00,SSW,210,6.0,7.0,76,-99.99,,,-99.99,,2015-06-02 16:43:00,
2015-06-02 13:32:00,58.0,50.0,-100.00,South,185,3.0,9.0,75,-99.99,,,-99.99,,2015-06-02 17:32:00,
2015-06-02 13:43:00,58.0,51.0,-100.00,SSW,195,2.0,8.0,76,-99.99,,,-99.99,,2015-06-02 17:43:00,
2015-06-02 13:52:00,58.0,50.0,-100.00,NW,310,2.0,8.0,74,-99.99,,,-99.99,,2015-06-02 17:52:00,
2015-06-02 14:02:00,58.0,50.0,-100.00,SSW,200,4.0,9.0,74,-99.99,,,-99.99,,2015-06-02 18:02:00,
2015-06-02 14:22:00,59.0,51.0,-100.00,SSW,205,5.0,8.0,73,-99.99,,,-99.99,,2015-06-02 18:22:00,
2015-06-02 14:32:00,60.0,50.0,-100.00,South,175,2.0,6.0,71,-99.99,,,-99.99,,2015-06-02 18:32:00,
2015-06-02 14:43:00,60.0,50.0,-100.00,ESE,115,2.0,7.0,71,-99.99,,,-99.99,,2015-06-02 18:43:00,
2015-06-02 14:52:00,60.0,51.0,-100.00,SSE,150,6.0,9.0,71,-99.99,,,-99.99,,2015-06-02 18:52:00,
2015-06-02 15:04:00,60.0,51.0,-100.00,SE,135,2.0,8.0,71,-99.99,,,-99.99,,2015-06-02 19:04:00,
2015-06-02 15:12:00,60.0,51.0,-100.00,East,100,4.0,9.0,71,-99.99,,,-99.99,,2015-06-02 19:12:00,
2015-06-02 15:22:00,60.0,51.0,-100.00,ESE,120,2.0,9.0,71,-99.99,,,-99.99,,2015-06-02 19:22:00,
2015-06-02 15:32:00,60.0,51.0,-100.00,SE,130,4.0,9.0,71,-99.99,,,-99.99,,2015-06-02 19:32:00,
2015-06-02 15:42:00,61.0,51.0,-100.00,SE,135,4.0,8.0,70,-99.99,,,-99.99,,2015-06-02 19:42:00,
2015-06-02 15:52:00,61.0,51.0,-100.00,East,100,4.0,8.0,71,-99.99,,,-99.99,,2015-06-02 19:52:00,
2015-06-02 16:21:00,61.0,51.0,-100.00,South,170,3.0,9.0,69,-99.99,,,-99.99,,2015-06-02 20:21:00,
2015-06-02 16:41:00,62.0,52.0,-100.00,SE,145,4.0,8.0,70,-99.99,,,-99.99,,2015-06-02 20:41:00,
2015-06-02 16:51:00,62.0,52.0,-100.00,SSE,160,4.0,8.0,70,-99.99,,,-99.99,,2015-06-02 20:51:00,
2015-06-02 17:01:00,62.0,52.0,-100.00,NE,55,2.0,6.0,69,-99.99,,,-99.99,,2015-06-02 21:01:00,
2015-06-02 17:11:00,62.0,52.0,-100.00,SSE,155,2.0,9.0,70,-99.99,,,-99.99,,2015-06-02 21:11:00,
2015-06-02 17:42:00,63.0,52.0,-100.00,SSE,165,4.0,8.0,68,-99.99,,,-99.99,,2015-06-02 21:42:00,
2015-06-02 17:51:00,64.0,53.0,-100.00,SSW,195,2.0,9.0,67,-99.99,,,-99.99,,2015-06-02 21:51:00,